{"data":{"norad_id":50499,"intl_designator":"2021-132AG","name":"ONEWEB-0427","alt_names":[],"object_type":"PAYLOAD","status":"ACTIVE","operator":null,"country":"UK","launch_date":"2021-12-27","launch_site_code":"TYMSC","launch_vehicle":null,"mission":null,"orbit_class":"UNKNOWN","rcs_meters":null,"size_class":null,"mass_kg":null,"dimensions":null,"purposes":["comms"],"wikipedia_slug":null,"has_3d_model":false,"image_url":null,"decayed_at":null,"tle_current":{"epoch":"2026-05-25T01:24:25.695072Z","epoch_age_seconds":63983,"freshness":"FRESH","line1":"1 50499U 21132AG  26145.05863073  .00000005  00000+0 -20127-4 0  9997","line2":"2 50499  87.9171 340.0368 0002023  92.9590 267.1774 13.18686690218561","mean_motion":13.1868669,"eccentricity":0.0002023,"inclination_deg":87.9171,"raan_deg":340.0368,"arg_perigee_deg":92.959,"mean_anomaly_deg":267.1774,"bstar":-2.0127e-5,"rev_number":21856,"period_min":109.19955520291,"perigee_km":1188.209505333,"apogee_km":1191.2714685643,"semimajor_km":7567.8774869486,"source":"CELESTRAK","updated_at":"2026-05-25T13:38:22.573005Z"}}}